Home   Weather   Aalborg   Past weeks

Flag for Denmark Past Weather in Aalborg, Denmark — Yesterday and Last 2 Weeks

50 °F

Partly cloudy.

Feels Like: 46 °F
Forecast: 46 / 50 °F
Wind: 10 mph from East

Location: Aalborg Airport

Current Time: Oct 20, 2016 at 9:47:07 PM

Latest Report: Oct 20, 2016 at 9:20 PM

Visibility: 3 mi

Pressure: 30.15 "Hg

Humidity: 94%

Dew Point: 48 °F

Location of AalborgLocation

Past Weather in Aalborg — Graph


Aalborg Temperature Yesterday

Maximum temperature yesterday: 54 °F (at 12:20 AM)
Minimum temperature yesterday: 50 °F (at 5:01 PM)
Average temperature yesterday: 51 °F

High & Low Weather Summary for the Past Weeks

High57 °F (Oct 6, 2:20 PM)100% (Oct 10, 4:50 AM)30.66 "Hg (Oct 10, 4:50 AM)
Low41 °F (Oct 6, 6:50 AM)44% (Oct 6, 3:20 PM)29.95 "Hg (Oct 19, 1:50 AM)
Average49 °F81%30.29 "Hg
* Reported Oct 5 8:20 PM — Oct 20 8:20 PM, Aalborg, Weather by CustomWeather, © 2016

Note: Actual official high and low records may vary slightly from our data, if they occured in-between our weather recording intervals... More about our weather records


Aalborg Weather History for the Previous 24 Hours

Scroll right to see more
Time TempWeatherWind HumidityBarometerVisibility
8:20 PM
Thu, Oct 20
50 °FPartly cloudy.12 mph94%30.12 "Hg4 mi
7:50 PM50 °FPartly cloudy.10 mph94%30.12 "Hg3 mi
7:20 PM50 °FPartly cloudy.10 mph94%30.12 "Hg3 mi
6:50 PM50 °FMostly cloudy.8 mph94%30.12 "Hg4 mi
6:20 PM50 °FDrizzle. Mostly cloudy.8 mph94%30.12 "Hg6 mi
5:50 PM50 °FDrizzle. Mostly cloudy.8 mph94%30.12 "Hg4 mi
5:20 PM50 °FDrizzle. Mostly cloudy.6 mph94%30.12 "Hg4 mi
4:50 PM50 °FDrizzle. Partly sunny.7 mph94%30.12 "Hg3 mi
4:20 PM52 °FDrizzle. Partly sunny.7 mph88%30.12 "Hg4 mi
3:50 PM52 °FOvercast.7 mph88%30.12 "HgN/A
3:20 PM52 °FLight rain. Overcast.8 mph88%30.12 "HgN/A
2:50 PM52 °FOvercast.7 mph88%30.12 "HgN/A
2:20 PM52 °FOvercast.7 mph88%30.12 "HgN/A
1:50 PM52 °FOvercast.9 mph88%30.12 "HgN/A
1:20 PM52 °FOvercast.9 mph88%30.12 "HgN/A
12:50 PM52 °FOvercast.9 mph88%30.12 "HgN/A
12:20 PM52 °FOvercast.9 mph88%30.12 "HgN/A
11:50 AM52 °FOvercast.10 mph88%30.12 "HgN/A
11:20 AM52 °FOvercast.8 mph88%30.12 "HgN/A
10:50 AM52 °FOvercast.8 mph88%30.12 "HgN/A
10:20 AM50 °FOvercast.9 mph94%30.12 "HgN/A
9:50 AM50 °FLow clouds.8 mph94%30.09 "HgN/A
9:20 AM50 °FLow clouds.7 mph94%30.09 "HgN/A
8:50 AM50 °FLight rain. Low clouds.8 mph94%30.09 "Hg5 mi
8:20 AM50 °FLight rain. Low clouds.7 mph94%30.09 "Hg5 mi
7:50 AM50 °FLight rain. Passing clouds.7 mph88%30.09 "Hg5 mi
7:20 AM50 °FLight rain. Passing clouds.8 mph88%30.07 "HgN/A
6:50 AM50 °FLight rain. Passing clouds.9 mph88%30.07 "HgN/A
6:20 AM50 °FPassing clouds.9 mph88%30.07 "HgN/A
5:50 AM50 °FPassing clouds.8 mph88%30.07 "HgN/A
5:20 AM50 °FPassing clouds.8 mph88%30.07 "HgN/A
4:50 AM50 °FPassing clouds.7 mph88%30.07 "HgN/A
4:20 AM50 °FPassing clouds.7 mph88%30.07 "HgN/A
3:50 AM50 °FPassing clouds.9 mph94%30.07 "HgN/A
3:20 AM50 °FPassing clouds.7 mph94%30.07 "HgN/A
2:50 AM48 °FPassing clouds.7 mph100%30.07 "HgN/A
2:20 AM50 °FPartly cloudy.6 mph94%30.07 "HgN/A
1:50 AM50 °FPartly cloudy.6 mph94%30.07 "HgN/A
1:20 AM50 °FPartly cloudy.5 mph94%30.07 "HgN/A
12:50 AM50 °FPartly cloudy.6 mph94%30.07 "HgN/A
12:20 AM50 °FPassing clouds.7 mph94%30.07 "HgN/A
11:50 PM
Wed, Oct 19
50 °FPassing clouds.6 mph94%30.07 "HgN/A
11:20 PM50 °FPartly cloudy.6 mph94%30.07 "HgN/A
10:50 PM50 °FPassing clouds.6 mph94%30.07 "HgN/A
10:20 PM50 °FPassing clouds.7 mph94%30.09 "HgN/A
9:50 PM50 °FPassing clouds.6 mph94%30.07 "HgN/A
9:20 PM50 °FPassing clouds.5 mph94%30.07 "Hg6 mi
Weather by CustomWeather, © 2016

See weather overviewHow to use our weather pages